Hinckley, MN

12:47 AM CST on December 11, 2019 (GMT -0600)
Hinckley

Weather History for K04W - October, 2019

Change the Weather History Date:

Thursday, October 31, 2019

  Actual Average (KJMR) Record (KJMR)
Temperature  
Mean Temperature 30 °F -  
Max Temperature 33 °F 50 °F 78 °F (1950)
Min Temperature 26 °F 28 °F 5 °F (1984)
Degree Days  
Heating Degree Days 36    
Moisture  
Dew Point 19 °F    
Average Humidity 67    
Maximum Humidity 80    
Minimum Humidity 56    
Precipitation  
Precipitation 0.00 in - - ()
Sea Level Pressure  
Sea Level Pressure 30.06 in    
Wind  
Wind Speed 4 mph (West)    
Max Wind Speed 10 mph    
Max Gust Speed -    
Visibility 10 miles    
Events      
Averages and records for this station are not official NWS values.
T = Trace of Precipitation, MM = Missing Value Source: NWS Daily Summary

Daily Weather History Graph

Daily Weather History Graph

Search for Another Location

Airport or City:

Astronomy

Oct. 31, 2019 Rise Set
Actual Time 7:50 AM CDT 5:59 PM CDT
Civil Twilight 7:19 AM CDT 6:30 PM CDT
Nautical Twilight 6:44 AM CDT 7:05 PM CDT
Astronomical Twilight 6:09 AM CDT 7:40 PM CDT
Moon 11:49 AM CDT (10/31) 8:46 PM CDT (10/31)
Length of Visible Light 11h 11m
Length of Day
10h 08m
Waxing Crescent, 16% of the Moon is Illuminated
Oct 31
Waxing Crescent
Nov 4
First Quarter
Nov 12
Full
Nov 19
Last Quarter
Nov 26
New

Hourly Weather History & Observations

Time (CDT) Temp. Windchill Dew Point Humidity Pressure Visibility Wind Dir Wind Speed Gust Speed Precip Events Conditions
12:15 AM 26.6 °F 21.2 °F 17.6 °F 69% 30.17 in 10.0 mi NW 4.6 mph - N/A   Overcast
12:19 AM 26.6 °F 21.2 °F 17.6 °F 69% 30.17 in 10.0 mi NW 4.6 mph - N/A   Overcast
12:37 AM 26.6 °F - 17.6 °F 69% 30.17 in 10.0 mi Calm Calm - N/A   Overcast
12:55 AM 26.6 °F - 17.6 °F 69% 30.17 in 10.0 mi Calm Calm - N/A   Overcast
1:15 AM 26.6 °F 22.6 °F 17.6 °F 69% 30.17 in 10.0 mi North 3.5 mph - N/A   Overcast
1:16 AM 26.6 °F 22.6 °F 17.6 °F 69% 30.16 in 10.0 mi North 3.5 mph - N/A   Overcast
1:35 AM 26.6 °F 22.6 °F 17.6 °F 69% 30.17 in 10.0 mi North 3.5 mph - N/A   Overcast
1:36 AM 26.6 °F 21.2 °F 17.6 °F 69% 30.17 in 10.0 mi North 4.6 mph - N/A   Overcast
1:58 AM 26.6 °F 20.0 °F 17.6 °F 69% 30.16 in 10.0 mi North 5.8 mph - N/A   Overcast
2:16 AM 26.6 °F - 17.6 °F 69% 30.16 in 10.0 mi Calm Calm - N/A   Overcast
2:35 AM 26.6 °F 22.6 °F 17.6 °F 69% 30.15 in 10.0 mi NW 3.5 mph - N/A   Overcast
2:36 AM 26.6 °F 22.6 °F 15.8 °F 64% 30.15 in 10.0 mi NW 3.5 mph - N/A   Overcast
3:18 AM 26.6 °F - 17.6 °F 69% 30.14 in 10.0 mi Calm Calm - N/A   Overcast
3:36 AM 26.6 °F 21.2 °F 17.6 °F 69% 30.14 in 10.0 mi NW 4.6 mph - N/A   Overcast
3:56 AM 26.6 °F 22.6 °F 17.6 °F 69% 30.13 in 10.0 mi NW 3.5 mph - N/A   Overcast
4:15 AM 26.6 °F - 17.6 °F 69% 30.13 in 10.0 mi Calm Calm - N/A   Overcast
4:35 AM 26.6 °F 22.6 °F 17.6 °F 69% 30.13 in 10.0 mi NNW 3.5 mph - N/A   Overcast
4:39 AM 26.6 °F - 17.6 °F 69% 30.13 in 10.0 mi Calm Calm - N/A   Overcast
4:58 AM 26.6 °F 20.0 °F 17.6 °F 69% 30.12 in 10.0 mi NNW 5.8 mph - N/A   Overcast
5:15 AM 26.6 °F 21.2 °F 17.6 °F 69% 30.12 in 10.0 mi NNW 4.6 mph - N/A   Overcast
5:35 AM 26.6 °F - 17.6 °F 69% 30.12 in 10.0 mi Calm Calm - N/A   Overcast
5:36 AM 26.6 °F 22.6 °F 17.6 °F 69% 30.12 in 10.0 mi North 3.5 mph - N/A   Overcast
5:55 AM 26.6 °F 20.0 °F 17.6 °F 69% 30.12 in 10.0 mi North 5.8 mph - N/A   Overcast
5:56 AM 26.6 °F 20.0 °F 17.6 °F 69% 30.12 in 10.0 mi North 5.8 mph - N/A   Overcast
6:19 AM 26.6 °F 21.2 °F 17.6 °F 69% 30.12 in 10.0 mi North 4.6 mph - N/A   Overcast
6:36 AM 26.6 °F 21.2 °F 17.6 °F 69% 30.12 in 10.0 mi NW 4.6 mph - N/A   Overcast
6:56 AM 26.6 °F - 17.6 °F 69% 30.11 in 10.0 mi Calm Calm - N/A   Overcast
7:15 AM 26.6 °F - 17.6 °F 69% 30.11 in 10.0 mi Calm Calm - N/A   Overcast
7:35 AM 26.6 °F 22.6 °F 17.6 °F 69% 30.11 in 10.0 mi NW 3.5 mph - N/A   Overcast
7:40 AM 26.6 °F 21.2 °F 17.6 °F 69% 30.11 in 10.0 mi West 4.6 mph - N/A   Overcast
7:57 AM 26.6 °F 20.0 °F 17.6 °F 69% 30.11 in 10.0 mi NW 5.8 mph - N/A   Overcast
8:35 AM 26.6 °F - 17.6 °F 69% 30.11 in 10.0 mi Calm Calm - N/A   Overcast
8:36 AM 26.6 °F 22.6 °F 17.6 °F 69% 30.11 in 10.0 mi West 3.5 mph - N/A   Overcast
8:55 AM 26.6 °F - 17.6 °F 69% 30.11 in 10.0 mi Calm Calm - N/A   Overcast
9:18 AM 26.6 °F 22.6 °F 17.6 °F 69% 30.11 in 10.0 mi WNW 3.5 mph - N/A   Overcast
9:36 AM 26.6 °F 21.2 °F 17.6 °F 69% 30.10 in 10.0 mi NW 4.6 mph - N/A   Overcast
9:56 AM 28.4 °F 24.6 °F 15.8 °F 59% 30.10 in 10.0 mi North 3.5 mph - N/A   Overcast
10:15 AM 28.4 °F 22.2 °F 17.6 °F 64% 30.09 in 10.0 mi NW 5.8 mph - N/A   Overcast
10:16 AM 28.4 °F 21.2 °F 17.6 °F 64% 30.09 in 10.0 mi WNW 6.9 mph - N/A   Overcast
10:35 AM 28.4 °F 22.2 °F 17.6 °F 64% 30.09 in 10.0 mi WNW 5.8 mph - N/A   Overcast
10:39 AM 28.4 °F 20.4 °F 17.6 °F 64% 30.09 in 10.0 mi NW 8.1 mph - N/A   Overcast
10:58 AM 28.4 °F 21.2 °F 17.6 °F 64% 30.08 in 10.0 mi NW 6.9 mph - N/A   Overcast
11:15 AM 28.4 °F 22.2 °F 17.6 °F 64% 30.08 in 10.0 mi NW 5.8 mph - N/A   Overcast
11:35 AM 28.4 °F 20.4 °F 17.6 °F 64% 30.07 in 10.0 mi NW 8.1 mph - N/A   Overcast
11:36 AM 28.4 °F 21.2 °F 17.6 °F 64% 30.07 in 10.0 mi WNW 6.9 mph - N/A   Overcast
11:55 AM 30.2 °F 23.4 °F 17.6 °F 60% 30.07 in 10.0 mi West 6.9 mph - N/A   Overcast
11:56 AM 30.2 °F 23.4 °F 19.4 °F 64% 30.07 in 10.0 mi WNW 6.9 mph - N/A   Overcast
12:19 PM 30.2 °F 23.4 °F 19.4 °F 64% 30.06 in 10.0 mi West 6.9 mph - N/A   Overcast
12:36 PM 30.2 °F 26.7 °F 19.4 °F 64% 30.06 in 10.0 mi NW 3.5 mph - N/A   Overcast
12:55 PM 30.2 °F 25.4 °F 17.6 °F 60% 30.05 in 10.0 mi NW 4.6 mph - N/A   Overcast
12:56 PM 30.2 °F 25.4 °F 17.6 °F 60% 30.05 in 10.0 mi NW 4.6 mph - N/A   Overcast
1:16 PM 32.0 °F 26.4 °F 19.4 °F 60% 30.03 in 10.0 mi WSW 5.8 mph - N/A   Overcast
1:35 PM 32.0 °F 28.7 °F 19.4 °F 60% 30.02 in 10.0 mi WSW 3.5 mph - N/A   Mostly Cloudy
1:39 PM 30.2 °F - 19.4 °F 64% 30.02 in 10.0 mi Calm Calm - N/A   Mostly Cloudy
1:57 PM 32.0 °F 23.6 °F 19.4 °F 60% 30.02 in 10.0 mi WSW 10.4 mph - N/A   Mostly Cloudy
2:15 PM 32.0 °F 27.5 °F 19.4 °F 60% 30.01 in 10.0 mi West 4.6 mph - N/A   Mostly Cloudy
2:36 PM 32.0 °F 26.4 °F 19.4 °F 60% 30.01 in 10.0 mi WNW 5.8 mph - N/A   Scattered Clouds
2:55 PM 32.0 °F 24.2 °F 19.4 °F 60% 30.00 in 10.0 mi West 9.2 mph - N/A   Clear
2:56 PM 32.0 °F 24.2 °F 19.4 °F 60% 30.00 in 10.0 mi West 9.2 mph - N/A   Clear
3:19 PM 32.0 °F 25.6 °F 21.2 °F 64% 30.00 in 10.0 mi WSW 6.9 mph - N/A   Clear
3:36 PM 32.0 °F 25.6 °F 19.4 °F 60% 29.99 in 10.0 mi West 6.9 mph - N/A   Clear
3:56 PM 32.0 °F 28.7 °F 19.4 °F 60% 29.99 in 10.0 mi WNW 3.5 mph - N/A   Clear
4:15 PM 33.8 °F 28.6 °F 19.4 °F 56% 29.99 in 10.0 mi WSW 5.8 mph - N/A   Clear
4:16 PM 33.8 °F 28.6 °F 19.4 °F 56% 29.99 in 10.0 mi West 5.8 mph - N/A   Clear
4:35 PM 33.8 °F 29.6 °F 19.4 °F 56% 29.98 in 10.0 mi West 4.6 mph - N/A   Clear
4:40 PM 33.8 °F 29.6 °F 19.4 °F 56% 29.98 in 10.0 mi West 4.6 mph - N/A   Clear
4:57 PM 33.8 °F 27.0 °F 19.4 °F 56% 29.99 in 10.0 mi WSW 8.1 mph - N/A   Clear
5:16 PM 32.0 °F 25.6 °F 19.4 °F 60% 29.98 in 10.0 mi SW 6.9 mph - N/A   Clear
5:35 PM 32.0 °F 25.6 °F 19.4 °F 60% 29.99 in 10.0 mi WSW 6.9 mph - N/A   Clear
5:36 PM 32.0 °F 26.4 °F 19.4 °F 60% 29.99 in 10.0 mi WSW 5.8 mph - N/A   Clear
5:55 PM 30.2 °F 26.7 °F 19.4 °F 64% 29.98 in 10.0 mi SSW 3.5 mph - N/A   Clear
6:18 PM 30.2 °F 25.4 °F 19.4 °F 64% 29.98 in 10.0 mi South 4.6 mph - N/A   Clear
6:37 PM 30.2 °F 25.4 °F 19.4 °F 64% 29.98 in 10.0 mi South 4.6 mph - N/A   Clear
6:56 PM 30.2 °F 25.4 °F 19.4 °F 64% 29.98 in 10.0 mi South 4.6 mph - N/A   Clear
7:15 PM 28.4 °F 24.6 °F 19.4 °F 69% 29.99 in 10.0 mi SSW 3.5 mph - N/A   Clear
7:16 PM 28.4 °F 24.6 °F 19.4 °F 69% 29.99 in 10.0 mi SSW 3.5 mph - N/A   Clear
7:35 PM 28.4 °F 24.6 °F 21.2 °F 74% 29.99 in 10.0 mi South 3.5 mph - N/A   Clear
7:40 PM 28.4 °F 24.6 °F 21.2 °F 74% 29.99 in 10.0 mi South 3.5 mph - N/A   Clear
7:57 PM 28.4 °F 24.6 °F 21.2 °F 74% 29.98 in 10.0 mi South 3.5 mph - N/A   Clear
8:16 PM 28.4 °F 23.3 °F 19.4 °F 69% 29.98 in 10.0 mi South 4.6 mph - N/A   Clear
8:35 PM 28.4 °F - 21.2 °F 74% 29.98 in 10.0 mi Calm Calm - N/A   Clear
8:36 PM 28.4 °F - 21.2 °F 74% 29.98 in 10.0 mi Calm Calm - N/A   Clear
8:55 PM 28.4 °F 24.6 °F 21.2 °F 74% 29.98 in 10.0 mi South 3.5 mph - N/A   Clear
8:56 PM 28.4 °F 24.6 °F 21.2 °F 74% 29.98 in 10.0 mi South 3.5 mph - N/A   Clear
9:19 PM 28.4 °F 24.6 °F 21.2 °F 74% 29.98 in 10.0 mi South 3.5 mph - N/A   Clear
9:36 PM 28.4 °F 24.6 °F 21.2 °F 74% 29.98 in 10.0 mi South 3.5 mph - N/A   Clear
9:55 PM 28.4 °F 24.6 °F 21.2 °F 74% 29.97 in 10.0 mi South 3.5 mph - N/A   Clear
10:15 PM 28.4 °F 24.6 °F 23.0 °F 80% 29.97 in 10.0 mi South 3.5 mph - N/A   Clear
10:35 PM 30.2 °F 25.4 °F 23.0 °F 75% 29.97 in 10.0 mi South 4.6 mph - N/A   Mostly Cloudy
10:39 PM 30.2 °F 25.4 °F 23.0 °F 75% 29.96 in 10.0 mi South 4.6 mph - N/A   Mostly Cloudy
10:57 PM 30.2 °F 26.7 °F 23.0 °F 75% 29.96 in 10.0 mi South 3.5 mph - N/A   Overcast
11:15 PM 30.2 °F 25.4 °F 23.0 °F 75% 29.95 in 10.0 mi South 4.6 mph - N/A   Overcast
11:35 PM 30.2 °F 26.7 °F 23.0 °F 75% 29.94 in 10.0 mi South 3.5 mph - N/A   Overcast
11:55 PM 30.2 °F 26.7 °F 23.0 °F 75% 29.94 in 10.0 mi South 3.5 mph - N/A   Scattered Clouds
11:56 PM 30.2 °F 26.7 °F 23.0 °F 75% 29.94 in 10.0 mi SSE 3.5 mph - N/A   Scattered Clouds